Year,Month,Day,Hour,Minute,Value (Times are PST for temperature in C)
2018,04,23,00,00,7.50
2018,04,23,00,01,7.50
2018,04,23,00,02,7.50
2018,04,23,00,03,7.50
2018,04,23,00,04,7.50
2018,04,23,00,05,7.50
2018,04,23,00,06,7.50
2018,04,23,00,07,7.40
2018,04,23,00,08,7.40
2018,04,23,00,09,7.40
2018,04,23,00,10,7.30
2018,04,23,00,11,7.30
2018,04,23,00,12,7.30
2018,04,23,00,13,7.30
2018,04,23,00,14,7.30
2018,04,23,00,15,7.20
2018,04,23,00,16,7.20
2018,04,23,00,17,7.20
2018,04,23,00,18,7.20
2018,04,23,00,19,7.20
2018,04,23,00,20,7.20
2018,04,23,00,21,7.20
2018,04,23,00,22,7.20
2018,04,23,00,23,7.20
2018,04,23,00,24,7.20
2018,04,23,00,25,7.20
2018,04,23,00,26,7.10
2018,04,23,00,27,7.10
2018,04,23,00,28,7.10
2018,04,23,00,29,7.10
2018,04,23,00,30,7.10
2018,04,23,00,31,7.00
2018,04,23,00,32,7.00
2018,04,23,00,33,6.90
2018,04,23,00,34,6.90
2018,04,23,00,35,6.90
2018,04,23,00,36,6.90
2018,04,23,00,37,6.80
2018,04,23,00,38,6.80
2018,04,23,00,39,6.80
2018,04,23,00,40,6.80
2018,04,23,00,41,6.80
2018,04,23,00,42,6.80
2018,04,23,00,43,6.80
2018,04,23,00,44,6.80
2018,04,23,00,45,6.90
2018,04,23,00,46,6.90
2018,04,23,00,47,6.90
2018,04,23,00,48,6.90
2018,04,23,00,49,6.90
2018,04,23,00,50,6.90
2018,04,23,00,51,6.90
2018,04,23,00,52,6.80
2018,04,23,00,53,6.80
2018,04,23,00,54,6.80
2018,04,23,00,55,6.80
2018,04,23,00,56,6.80
2018,04,23,00,57,6.70
2018,04,23,00,58,6.70
2018,04,23,00,59,6.70
2018,04,23,01,00,6.70
2018,04,23,01,01,6.60
2018,04,23,01,02,6.60
2018,04,23,01,03,6.60
2018,04,23,01,04,6.60
2018,04,23,01,05,6.50
2018,04,23,01,06,6.50
2018,04,23,01,07,6.40
2018,04,23,01,08,6.40
2018,04,23,01,09,6.40
2018,04,23,01,10,6.30
2018,04,23,01,11,6.30
2018,04,23,01,12,6.20
2018,04,23,01,13,6.20
2018,04,23,01,14,6.20
2018,04,23,01,15,6.20
2018,04,23,01,16,6.10
2018,04,23,01,17,6.10
2018,04,23,01,18,6.10
2018,04,23,01,19,6.00
2018,04,23,01,20,6.00
2018,04,23,01,21,6.00
2018,04,23,01,22,6.00
2018,04,23,01,23,6.00
2018,04,23,01,24,6.00
2018,04,23,01,25,6.00
2018,04,23,01,26,6.00
2018,04,23,01,27,6.00
2018,04,23,01,28,6.00
2018,04,23,01,29,6.00
2018,04,23,01,30,6.00
2018,04,23,01,31,6.00
2018,04,23,01,32,6.00
2018,04,23,01,33,6.00
2018,04,23,01,34,6.00
2018,04,23,01,35,6.00
2018,04,23,01,36,6.00
2018,04,23,01,37,6.00
2018,04,23,01,38,6.00
2018,04,23,01,39,6.00
2018,04,23,01,40,6.00
2018,04,23,01,41,6.00
2018,04,23,01,42,6.00
2018,04,23,01,43,6.00
2018,04,23,01,44,6.00
2018,04,23,01,45,6.00
2018,04,23,01,46,5.90
2018,04,23,01,47,5.90
2018,04,23,01,48,5.90
2018,04,23,01,49,5.90
2018,04,23,01,50,5.90
2018,04,23,01,51,5.90
2018,04,23,01,52,5.90
2018,04,23,01,53,5.80
2018,04,23,01,54,5.80
2018,04,23,01,55,5.80
2018,04,23,01,56,5.80
2018,04,23,01,57,5.80
2018,04,23,01,58,5.80
2018,04,23,01,59,5.80
2018,04,23,02,00,5.80
2018,04,23,02,01,5.80
2018,04,23,02,02,5.80
2018,04,23,02,03,5.80
2018,04,23,02,04,5.80
2018,04,23,02,05,5.80
2018,04,23,02,06,5.80
2018,04,23,02,07,5.80
2018,04,23,02,08,5.80
2018,04,23,02,09,5.80
2018,04,23,02,10,5.80
2018,04,23,02,11,5.80
2018,04,23,02,12,5.80
2018,04,23,02,13,5.80
2018,04,23,02,14,5.90
2018,04,23,02,15,5.90
2018,04,23,02,16,5.90
2018,04,23,02,17,5.90
2018,04,23,02,18,5.90
2018,04,23,02,19,5.90
2018,04,23,02,20,6.00
2018,04,23,02,21,6.00
2018,04,23,02,22,6.00
2018,04,23,02,23,6.10
2018,04,23,02,24,6.10
2018,04,23,02,25,6.10
2018,04,23,02,26,6.10
2018,04,23,02,27,6.10
2018,04,23,02,28,6.10
2018,04,23,02,29,6.10
2018,04,23,02,30,6.10
2018,04,23,02,31,6.10
2018,04,23,02,32,6.10
2018,04,23,02,33,6.10
2018,04,23,02,34,6.10
2018,04,23,02,35,6.10
2018,04,23,02,36,6.10
2018,04,23,02,37,6.10
2018,04,23,02,38,6.00
2018,04,23,02,39,6.00
2018,04,23,02,40,6.00
2018,04,23,02,41,5.90
2018,04,23,02,42,5.90
2018,04,23,02,43,5.80
2018,04,23,02,44,5.80
2018,04,23,02,45,5.80
2018,04,23,02,46,5.80
2018,04,23,02,47,5.70
2018,04,23,02,48,5.70
2018,04,23,02,49,5.70
2018,04,23,02,50,5.70
2018,04,23,02,51,5.70
2018,04,23,02,52,5.60
2018,04,23,02,53,5.60
2018,04,23,02,54,5.60
2018,04,23,02,55,5.60
2018,04,23,02,56,5.60
2018,04,23,02,57,5.50
2018,04,23,02,58,5.50
2018,04,23,02,59,5.50
2018,04,23,03,00,5.40
2018,04,23,03,01,5.40
2018,04,23,03,02,5.40
2018,04,23,03,03,5.40
2018,04,23,03,04,5.40
2018,04,23,03,05,5.40
2018,04,23,03,06,5.40
2018,04,23,03,07,5.40
2018,04,23,03,08,5.30
2018,04,23,03,09,5.30
2018,04,23,03,10,5.30
2018,04,23,03,11,5.30
2018,04,23,03,12,5.30
2018,04,23,03,13,5.30
2018,04,23,03,14,5.30
2018,04,23,03,15,5.30
2018,04,23,03,16,5.30
2018,04,23,03,17,5.30
2018,04,23,03,18,5.40
2018,04,23,03,19,5.40
2018,04,23,03,20,5.50
2018,04,23,03,21,5.50
2018,04,23,03,22,5.50
2018,04,23,03,23,5.50
2018,04,23,03,24,5.50
2018,04,23,03,25,5.50
2018,04,23,03,26,5.50
2018,04,23,03,27,5.50
2018,04,23,03,28,5.50
2018,04,23,03,29,5.50
2018,04,23,03,30,5.50
2018,04,23,03,31,5.40
2018,04,23,03,32,5.40
2018,04,23,03,33,5.40
2018,04,23,03,34,5.40
2018,04,23,03,35,5.40
2018,04,23,03,36,5.40
2018,04,23,03,37,5.40
2018,04,23,03,38,5.30
2018,04,23,03,39,5.30
2018,04,23,03,40,5.30
2018,04,23,03,41,5.30
2018,04,23,03,42,5.30
2018,04,23,03,43,5.30
2018,04,23,03,44,5.30
2018,04,23,03,45,5.30
2018,04,23,03,46,5.30
2018,04,23,03,47,5.30
2018,04,23,03,48,5.30
2018,04,23,03,49,5.30
2018,04,23,03,50,5.30
2018,04,23,03,51,5.30
2018,04,23,03,52,5.30
2018,04,23,03,53,5.30
2018,04,23,03,54,5.20
2018,04,23,03,55,5.20
2018,04,23,03,56,5.20
2018,04,23,03,57,5.20
2018,04,23,03,58,5.20
2018,04,23,03,59,5.20
2018,04,23,04,00,5.20
2018,04,23,04,01,5.20
2018,04,23,04,02,5.10
2018,04,23,04,03,5.10
2018,04,23,05,04,4.30
2018,04,23,05,05,4.30
2018,04,23,05,06,4.30
2018,04,23,05,07,4.30
2018,04,23,05,08,4.30
2018,04,23,05,09,4.30
2018,04,23,05,10,4.30
2018,04,23,05,11,4.40
2018,04,23,05,12,4.50
2018,04,23,05,13,4.60
2018,04,23,05,14,4.70
2018,04,23,05,15,4.80
2018,04,23,05,16,4.90
2018,04,23,05,17,5.00
2018,04,23,05,18,5.10
2018,04,23,05,19,5.20
2018,04,23,05,20,5.40
2018,04,23,05,21,5.40
2018,04,23,05,22,5.50
2018,04,23,05,23,5.60
2018,04,23,05,24,5.70
2018,04,23,05,25,5.70
2018,04,23,05,26,5.80
2018,04,23,05,27,5.80
2018,04,23,05,28,5.90
2018,04,23,05,29,5.90
2018,04,23,05,30,6.00
2018,04,23,05,31,6.00
2018,04,23,05,32,6.10
2018,04,23,05,33,6.10
2018,04,23,05,34,6.10
2018,04,23,05,35,6.10
2018,04,23,05,36,6.10
2018,04,23,05,37,6.10
2018,04,23,05,38,6.10
2018,04,23,05,39,6.10
2018,04,23,05,40,6.10
2018,04,23,05,41,6.10
2018,04,23,05,42,6.10
2018,04,23,05,43,6.10
2018,04,23,05,44,6.10
2018,04,23,05,45,6.20
2018,04,23,05,46,6.20
2018,04,23,05,47,6.20
2018,04,23,05,48,6.30
2018,04,23,05,49,6.30
2018,04,23,05,50,6.40
2018,04,23,05,51,6.40
2018,04,23,05,52,6.50
2018,04,23,05,53,6.50
2018,04,23,05,54,6.60
2018,04,23,05,55,6.60
2018,04,23,05,56,6.60
2018,04,23,05,57,6.70
2018,04,23,05,58,6.70
2018,04,23,05,59,6.80
2018,04,23,06,00,6.80
2018,04,23,06,01,6.80
2018,04,23,06,02,6.80
2018,04,23,06,03,6.90
2018,04,23,06,04,6.90
2018,04,23,06,05,6.90
2018,04,23,06,06,6.90
2018,04,23,06,07,6.90
2018,04,23,06,08,6.90
2018,04,23,06,09,6.90
2018,04,23,06,10,7.00
2018,04,23,06,11,7.00
2018,04,23,06,12,7.00
2018,04,23,06,13,7.00
2018,04,23,06,14,7.10
2018,04,23,06,15,7.10
2018,04,23,06,16,7.10
2018,04,23,06,17,7.10
2018,04,23,06,18,7.10
2018,04,23,06,19,7.10
2018,04,23,06,20,7.20
2018,04,23,06,21,7.20
2018,04,23,06,22,7.20
2018,04,23,06,23,7.20
2018,04,23,06,24,7.20
2018,04,23,06,25,7.20
2018,04,23,06,26,7.20
2018,04,23,06,27,7.20
2018,04,23,06,28,7.20
2018,04,23,06,29,7.20
2018,04,23,06,30,7.20
2018,04,23,06,31,7.20
2018,04,23,06,32,7.20
2018,04,23,06,33,7.20
2018,04,23,06,34,7.20
2018,04,23,06,35,7.20
2018,04,23,06,36,7.20
2018,04,23,06,37,7.20
2018,04,23,06,38,7.20
2018,04,23,06,39,7.20
2018,04,23,06,40,7.20
2018,04,23,06,41,7.20
2018,04,23,06,42,7.20
2018,04,23,06,43,7.20
2018,04,23,06,44,7.20
2018,04,23,06,45,7.20
2018,04,23,06,46,7.20
2018,04,23,06,47,7.20
2018,04,23,06,48,7.20
2018,04,23,06,49,7.20
2018,04,23,06,50,7.20
2018,04,23,06,51,7.20
2018,04,23,06,52,7.20
2018,04,23,06,53,7.20
2018,04,23,06,54,7.20
2018,04,23,06,55,7.20
2018,04,23,06,56,7.20
2018,04,23,06,57,7.20
2018,04,23,06,58,7.20
2018,04,23,06,59,7.20
2018,04,23,07,00,7.20
2018,04,23,07,01,7.20
2018,04,23,07,02,7.20
2018,04,23,07,03,7.30
2018,04,23,07,04,7.30
2018,04,23,07,05,7.30
2018,04,23,07,06,7.30
2018,04,23,07,07,7.40
2018,04,23,07,08,7.40
2018,04,23,07,09,7.40
2018,04,23,07,10,7.50
2018,04,23,07,11,7.50
2018,04,23,07,12,7.60
2018,04,23,07,13,7.60
2018,04,23,07,14,7.70
2018,04,23,07,15,7.70
2018,04,23,07,16,7.70
2018,04,23,07,17,7.70
2018,04,23,07,18,7.80
2018,04,23,07,19,7.80
2018,04,23,07,20,7.80
2018,04,23,07,21,7.80
2018,04,23,07,22,7.80
2018,04,23,07,23,7.90
2018,04,23,07,24,7.90
2018,04,23,07,25,7.90
2018,04,23,07,26,7.90
2018,04,23,07,27,8.00
2018,04,23,07,28,8.00
2018,04,23,07,29,8.00
2018,04,23,07,30,8.10
2018,04,23,07,31,8.10
2018,04,23,07,32,8.20
2018,04,23,07,33,8.20
2018,04,23,07,34,8.20
2018,04,23,07,35,8.30
2018,04,23,07,36,8.30
2018,04,23,07,37,8.40
2018,04,23,07,38,8.50
2018,04,23,07,39,8.50
2018,04,23,07,40,8.60
2018,04,23,07,41,8.60
2018,04,23,07,42,8.70
2018,04,23,07,43,8.70
2018,04,23,07,44,8.70
2018,04,23,07,45,8.70
2018,04,23,07,46,8.80
2018,04,23,07,47,8.80
2018,04,23,07,48,8.80
2018,04,23,07,49,8.90
2018,04,23,07,50,8.90
2018,04,23,07,51,8.90
2018,04,23,07,52,8.90
2018,04,23,07,53,8.90
2018,04,23,07,54,8.90
2018,04,23,07,55,8.90
2018,04,23,07,56,9.00
2018,04,23,07,57,9.00
2018,04,23,07,58,9.00
2018,04,23,07,59,9.00
2018,04,23,08,00,9.00
2018,04,23,08,01,9.00
2018,04,23,08,02,9.00
2018,04,23,08,03,9.00
2018,04,23,08,04,9.00
2018,04,23,08,05,9.00
2018,04,23,08,06,9.00
2018,04,23,08,07,9.10
2018,04,23,08,08,9.10
2018,04,23,08,09,9.10
2018,04,23,08,10,9.10
2018,04,23,08,11,9.10
2018,04,23,08,12,9.10
2018,04,23,08,13,9.10
2018,04,23,08,14,9.10
2018,04,23,08,15,9.10
2018,04,23,08,16,9.10
2018,04,23,08,17,9.20
2018,04,23,08,18,9.20
2018,04,23,08,19,9.20
2018,04,23,08,20,9.20
2018,04,23,08,21,9.20
2018,04,23,08,22,9.30
2018,04,23,08,23,9.30
2018,04,23,08,24,9.30
2018,04,23,08,25,9.30
2018,04,23,08,26,9.30
2018,04,23,08,27,9.30
2018,04,23,08,28,9.30
2018,04,23,08,29,9.30
2018,04,23,08,30,9.30
2018,04,23,08,31,9.30
2018,04,23,08,32,9.30
2018,04,23,08,33,9.30
2018,04,23,08,34,9.40
2018,04,23,08,35,9.40
2018,04,23,08,36,9.40
2018,04,23,08,37,9.40
2018,04,23,08,38,9.40
2018,04,23,08,39,9.50
2018,04,23,08,40,9.50
2018,04,23,08,41,9.50
2018,04,23,08,42,9.60
2018,04,23,08,43,9.60
2018,04,23,08,44,9.70
2018,04,23,08,45,9.70
2018,04,23,08,46,9.70
2018,04,23,08,47,9.80
2018,04,23,08,48,9.80
2018,04,23,08,49,9.80
2018,04,23,08,50,9.80
2018,04,23,08,51,9.80
2018,04,23,08,52,9.80
2018,04,23,08,53,9.80
2018,04,23,08,54,9.80
2018,04,23,08,55,9.80
2018,04,23,08,56,9.80
2018,04,23,08,57,9.90
2018,04,23,08,58,9.90
2018,04,23,08,59,10.00
2018,04,23,09,00,10.00
2018,04,23,09,01,10.10
2018,04,23,09,02,10.10
2018,04,23,09,03,10.20
2018,04,23,09,04,10.20
2018,04,23,09,05,10.20
2018,04,23,09,06,10.20
2018,04,23,09,07,10.20
2018,04,23,09,08,10.20
2018,04,23,09,09,10.20
2018,04,23,09,10,10.20
2018,04,23,09,11,10.20
2018,04,23,09,12,10.20
2018,04,23,09,13,10.20
2018,04,23,09,14,10.20
2018,04,23,09,15,10.10
2018,04,23,09,16,10.10
2018,04,23,09,17,10.10
2018,04,23,09,18,10.10
2018,04,23,09,19,10.10
2018,04,23,09,20,10.10
2018,04,23,09,21,10.10
2018,04,23,09,22,10.10
2018,04,23,09,23,10.10
2018,04,23,09,24,10.10
2018,04,23,09,25,10.10
2018,04,23,09,26,10.20
2018,04,23,09,27,10.20
2018,04,23,09,28,10.20
2018,04,23,09,29,10.20
2018,04,23,09,30,10.20
2018,04,23,09,31,10.30
2018,04,23,09,32,10.30
2018,04,23,09,33,10.30
2018,04,23,09,34,10.30
2018,04,23,09,35,10.30
2018,04,23,09,36,10.30
2018,04,23,09,37,10.30
2018,04,23,09,38,10.30
2018,04,23,09,39,10.30
2018,04,23,09,40,10.40
2018,04,23,09,41,10.40
2018,04,23,09,42,10.50
2018,04,23,09,43,10.50
2018,04,23,09,44,10.50
2018,04,23,09,45,10.50
2018,04,23,09,46,10.60
2018,04,23,09,47,10.60
2018,04,23,09,48,10.60
2018,04,23,09,49,10.60
2018,04,23,09,50,10.60
2018,04,23,09,51,10.60
2018,04,23,09,52,10.60
2018,04,23,09,53,10.60
2018,04,23,09,54,10.70
2018,04,23,09,55,10.70
2018,04,23,09,56,10.70
2018,04,23,09,57,10.80
2018,04,23,09,58,10.80
2018,04,23,09,59,10.80
2018,04,23,10,00,10.80
2018,04,23,10,01,10.80
2018,04,23,10,02,10.90
2018,04,23,10,03,11.00
2018,04,23,10,04,11.00
2018,04,23,10,05,11.10
2018,04,23,10,06,11.10
2018,04,23,10,07,11.20
2018,04,23,10,08,11.20
2018,04,23,10,09,11.20
2018,04,23,10,10,11.20
2018,04,23,10,11,11.20
2018,04,23,10,12,11.20
2018,04,23,10,13,11.30
2018,04,23,10,14,11.30
2018,04,23,10,15,11.30
2018,04,23,10,16,11.30
2018,04,23,10,17,11.40
2018,04,23,10,18,11.40
2018,04,23,10,19,11.40
2018,04,23,10,20,11.40
2018,04,23,10,21,11.40
2018,04,23,10,22,11.50
2018,04,23,10,23,11.50
2018,04,23,10,24,11.50
2018,04,23,10,25,11.60
2018,04,23,10,26,11.60
2018,04,23,10,27,11.70
2018,04,23,10,28,11.80
2018,04,23,10,29,11.80
2018,04,23,10,30,11.90
2018,04,23,10,31,11.90
2018,04,23,10,32,11.90
2018,04,23,10,33,11.90
2018,04,23,10,34,11.90
2018,04,23,10,35,12.00
2018,04,23,10,36,12.10
2018,04,23,10,37,12.10
2018,04,23,10,38,12.10
2018,04,23,10,39,12.10
2018,04,23,10,40,12.20
2018,04,23,10,41,12.20
2018,04,23,10,42,12.30
2018,04,23,10,43,12.30
2018,04,23,10,44,12.40
2018,04,23,10,45,12.40
2018,04,23,10,46,12.40
2018,04,23,10,47,12.40
2018,04,23,10,48,12.50
2018,04,23,10,49,12.40
2018,04,23,10,50,12.40
2018,04,23,10,51,12.40
2018,04,23,10,52,12.40
2018,04,23,10,53,12.30
2018,04,23,10,54,12.30
2018,04,23,10,55,12.30
2018,04,23,10,56,12.30
2018,04,23,10,57,12.30
2018,04,23,10,58,12.30
2018,04,23,10,59,12.40
2018,04,23,11,00,12.50
2018,04,23,11,01,12.50
2018,04,23,11,02,12.60
2018,04,23,11,03,12.60
2018,04,23,11,04,12.60
2018,04,23,11,05,12.60
2018,04,23,11,06,12.70
2018,04,23,11,07,12.70
2018,04,23,11,08,12.70
2018,04,23,11,09,12.80
2018,04,23,11,10,12.90
2018,04,23,11,11,13.00
2018,04,23,11,12,13.10
2018,04,23,11,13,13.20
2018,04,23,11,14,13.10
2018,04,23,11,15,13.00
2018,04,23,11,16,12.90
2018,04,23,11,17,12.90
2018,04,23,11,18,12.80
2018,04,23,11,19,12.80
2018,04,23,11,20,12.80
2018,04,23,11,21,12.80
2018,04,23,11,22,12.80
2018,04,23,11,23,12.80
2018,04,23,11,24,12.90
2018,04,23,11,25,12.90
2018,04,23,11,26,12.90
2018,04,23,11,27,12.90
2018,04,23,11,28,12.90
2018,04,23,11,29,12.90
2018,04,23,11,30,12.90
2018,04,23,11,31,13.00
2018,04,23,11,32,13.10
2018,04,23,11,33,13.10
2018,04,23,11,34,13.20
2018,04,23,11,35,13.20
2018,04,23,11,36,13.30
2018,04,23,11,37,13.40
2018,04,23,11,38,13.40
2018,04,23,11,39,13.50
2018,04,23,11,40,13.60
2018,04,23,11,41,13.60
2018,04,23,11,42,13.70
2018,04,23,11,43,13.70
2018,04,23,11,44,13.80
2018,04,23,11,45,13.80
2018,04,23,11,46,13.70
2018,04,23,11,47,13.70
2018,04,23,11,48,13.70
2018,04,23,11,49,13.70
2018,04,23,11,50,13.70
2018,04,23,11,51,13.80
2018,04,23,11,52,13.90
2018,04,23,11,53,13.90
2018,04,23,11,54,14.00
2018,04,23,11,55,14.00
2018,04,23,11,56,14.10
2018,04,23,11,57,14.20
2018,04,23,11,58,14.30
2018,04,23,11,59,14.40
2018,04,23,12,00,14.40
2018,04,23,12,01,14.50
2018,04,23,12,02,14.50
2018,04,23,12,03,14.50
2018,04,23,12,04,14.50
2018,04,23,12,05,14.50
2018,04,23,12,06,14.40
2018,04,23,12,07,14.40
2018,04,23,12,08,14.40
2018,04,23,12,09,14.40
2018,04,23,12,10,14.30
2018,04,23,12,11,14.30
2018,04,23,12,12,14.20
2018,04,23,12,13,14.10
2018,04,23,12,14,14.10
2018,04,23,12,15,14.00
2018,04,23,12,16,14.00
2018,04,23,12,17,14.00
2018,04,23,12,18,14.00
2018,04,23,12,19,14.10
2018,04,23,12,20,14.10
2018,04,23,12,21,14.20
2018,04,23,12,22,14.30
2018,04,23,12,23,14.40
2018,04,23,12,24,14.40
2018,04,23,12,25,14.40
2018,04,23,12,26,14.50
2018,04,23,12,27,14.60
2018,04,23,12,28,14.60
2018,04,23,12,29,14.70
2018,04,23,12,30,14.80
2018,04,23,12,31,14.80
2018,04,23,12,32,14.80
2018,04,23,12,33,14.80
2018,04,23,12,34,14.70
2018,04,23,12,35,14.70
2018,04,23,12,36,14.70
2018,04,23,12,37,14.60
2018,04,23,12,38,14.60
2018,04,23,12,39,14.50
2018,04,23,12,40,14.50
2018,04,23,12,41,14.50
2018,04,23,12,42,14.50
2018,04,23,12,43,14.60
2018,04,23,12,44,14.60
2018,04,23,12,45,14.70
2018,04,23,12,46,14.80
2018,04,23,12,47,14.80
2018,04,23,12,48,14.90
2018,04,23,12,49,14.90
2018,04,23,12,50,15.00
2018,04,23,12,51,14.90
2018,04,23,12,52,14.90
2018,04,23,12,53,15.00
2018,04,23,12,54,15.00
2018,04,23,12,55,15.00
2018,04,23,12,56,14.90
2018,04,23,12,57,14.90
2018,04,23,12,58,14.90
2018,04,23,12,59,14.90
2018,04,23,13,00,14.80
2018,04,23,13,01,14.80
2018,04,23,13,02,14.90
2018,04,23,13,03,15.00
2018,04,23,13,04,15.10
2018,04,23,13,05,15.10
2018,04,23,13,06,15.20
2018,04,23,13,07,15.20
2018,04,23,13,08,15.20
2018,04,23,13,09,15.20
2018,04,23,13,10,15.20
2018,04,23,13,11,15.20
2018,04,23,13,12,15.20
2018,04,23,13,13,15.30
2018,04,23,13,14,15.30
2018,04,23,13,15,15.40
2018,04,23,13,16,15.40
2018,04,23,13,17,15.40
2018,04,23,13,18,15.50
2018,04,23,13,19,15.50
2018,04,23,13,20,15.50
2018,04,23,13,21,15.50
2018,04,23,13,22,15.60
2018,04,23,13,23,15.50
2018,04,23,13,24,15.50
2018,04,23,13,25,15.40
2018,04,23,13,26,15.40
2018,04,23,13,27,15.30
2018,04,23,13,28,15.30
2018,04,23,13,29,15.30
2018,04,23,13,30,15.30
2018,04,23,13,31,15.40
2018,04,23,13,32,15.50
2018,04,23,13,33,15.60
2018,04,23,13,34,15.60
2018,04,23,13,35,15.60
2018,04,23,13,36,15.60
2018,04,23,13,37,15.70
2018,04,23,13,38,15.70
2018,04,23,13,39,15.80
2018,04,23,13,40,15.70
2018,04,23,13,41,15.70
2018,04,23,13,42,15.70
2018,04,23,13,43,15.70
2018,04,23,13,44,15.70
2018,04,23,13,45,15.70
2018,04,23,13,46,15.70
2018,04,23,13,47,15.70
2018,04,23,13,48,15.70
2018,04,23,13,49,15.70
2018,04,23,13,50,15.70
2018,04,23,13,51,15.70
2018,04,23,13,52,15.70
2018,04,23,13,53,15.80
2018,04,23,13,54,15.80
2018,04,23,13,55,15.90
2018,04,23,13,56,15.90
2018,04,23,13,57,16.00
2018,04,23,13,58,16.10
2018,04,23,13,59,16.00
2018,04,23,14,00,15.90
2018,04,23,14,01,15.90
2018,04,23,14,02,15.90
2018,04,23,14,03,15.90
2018,04,23,14,04,15.80
2018,04,23,14,05,15.70
2018,04,23,14,06,15.70
2018,04,23,14,07,15.60
2018,04,23,14,08,15.70
2018,04,23,14,09,15.70
2018,04,23,14,10,15.70
2018,04,23,14,11,15.70
2018,04,23,14,12,15.70
2018,04,23,14,13,15.80
2018,04,23,14,14,15.90
2018,04,23,14,15,16.00
2018,04,23,14,16,16.10
2018,04,23,14,17,16.20
2018,04,23,14,18,16.20
2018,04,23,14,19,16.30
2018,04,23,14,20,16.40
2018,04,23,14,21,16.40
2018,04,23,14,22,16.40
2018,04,23,14,23,16.40
2018,04,23,14,24,16.40
2018,04,23,14,25,16.50
2018,04,23,14,26,16.50
2018,04,23,14,27,16.50
2018,04,23,14,28,16.60
2018,04,23,14,29,16.60
2018,04,23,14,30,16.60
2018,04,23,14,31,16.60
2018,04,23,14,32,16.70
2018,04,23,14,33,16.70
2018,04,23,14,34,16.70
2018,04,23,14,35,16.70
2018,04,23,14,36,16.70
2018,04,23,14,37,16.70
2018,04,23,14,38,16.60
2018,04,23,14,39,16.60
2018,04,23,14,40,16.60
2018,04,23,14,41,16.60
2018,04,23,14,42,16.60
2018,04,23,14,43,16.60
2018,04,23,14,44,16.60
2018,04,23,14,45,16.60
2018,04,23,14,46,16.60
2018,04,23,14,47,16.70
2018,04,23,14,48,16.80
2018,04,23,14,49,16.80
2018,04,23,14,50,16.80
2018,04,23,14,51,16.80
2018,04,23,14,52,16.80
2018,04,23,14,53,16.80
2018,04,23,14,54,16.80
2018,04,23,14,55,16.80
2018,04,23,14,56,16.80
2018,04,23,14,57,16.90
2018,04,23,14,58,16.90
2018,04,23,14,59,16.90
2018,04,23,15,00,16.90
2018,04,23,15,01,16.90
2018,04,23,15,02,17.00
2018,04,23,15,03,17.00
2018,04,23,15,04,17.10
2018,04,23,15,05,17.20
2018,04,23,15,06,17.20
2018,04,23,15,07,17.20
2018,04,23,15,08,17.20
2018,04,23,15,09,17.10
2018,04,23,15,10,17.00
2018,04,23,15,11,17.00
2018,04,23,15,12,16.90
2018,04,23,15,13,16.80
2018,04,23,15,14,16.80
2018,04,23,15,15,16.80
2018,04,23,15,16,16.70
2018,04,23,15,17,16.60
2018,04,23,15,18,16.70
2018,04,23,15,19,16.70
2018,04,23,15,20,16.60
2018,04,23,15,21,16.70
2018,04,23,15,22,16.70
2018,04,23,15,23,16.70
2018,04,23,15,24,16.70
2018,04,23,15,25,16.70
2018,04,23,15,26,16.80
2018,04,23,15,27,16.80
2018,04,23,15,28,16.80
2018,04,23,15,29,16.90
2018,04,23,15,30,16.90
2018,04,23,15,31,16.80
2018,04,23,15,32,16.80
2018,04,23,15,33,16.80
2018,04,23,15,34,16.90
2018,04,23,15,35,16.90
2018,04,23,15,36,16.90
2018,04,23,15,37,16.90
2018,04,23,15,38,16.80
2018,04,23,15,39,16.80
2018,04,23,15,40,16.80
2018,04,23,15,41,16.80
2018,04,23,15,42,16.90
2018,04,23,15,43,16.90
2018,04,23,15,44,16.90
2018,04,23,15,45,16.90
2018,04,23,15,46,16.90
2018,04,23,15,47,17.00
2018,04,23,15,48,17.10
2018,04,23,15,49,17.20
2018,04,23,15,50,17.20
2018,04,23,15,51,17.20
2018,04,23,15,52,17.20
2018,04,23,15,53,17.10
2018,04,23,15,54,17.00
2018,04,23,15,55,16.90
2018,04,23,15,56,16.80
2018,04,23,15,57,16.70
2018,04,23,15,58,16.60
2018,04,23,15,59,16.60
2018,04,23,16,00,16.60
2018,04,23,16,01,16.60
2018,04,23,16,02,16.70
2018,04,23,16,03,16.70
2018,04,23,16,04,16.70
2018,04,23,16,05,16.70
2018,04,23,16,06,16.90
2018,04,23,16,07,17.00
2018,04,23,16,08,17.10
2018,04,23,16,09,17.20
2018,04,23,16,10,17.20
2018,04,23,16,11,17.30
2018,04,23,16,12,17.30
2018,04,23,16,13,17.30
2018,04,23,16,14,17.30
2018,04,23,16,15,17.30
2018,04,23,16,16,17.30
2018,04,23,16,17,17.40
2018,04,23,16,18,17.40
2018,04,23,16,19,17.30
2018,04,23,16,20,17.30
2018,04,23,16,21,17.40
2018,04,23,16,22,17.40
2018,04,23,16,23,17.50
2018,04,23,16,24,17.60
2018,04,23,16,25,17.60
2018,04,23,16,26,17.60
2018,04,23,16,27,17.60
2018,04,23,16,28,17.70
2018,04,23,16,29,17.60
2018,04,23,16,30,17.60
2018,04,23,16,31,17.60
2018,04,23,16,32,17.60
2018,04,23,16,33,17.60
2018,04,23,16,34,17.70
2018,04,23,16,35,17.70
2018,04,23,16,36,17.70
2018,04,23,16,37,17.70
2018,04,23,16,38,17.70
2018,04,23,16,39,17.70
2018,04,23,16,40,17.70
2018,04,23,16,41,17.80
2018,04,23,16,42,17.80
2018,04,23,16,43,17.80
2018,04,23,16,44,17.80
2018,04,23,16,45,17.80
2018,04,23,16,46,17.80
2018,04,23,16,47,17.80
2018,04,23,16,48,17.80
2018,04,23,16,49,17.70
2018,04,23,16,50,17.60
2018,04,23,16,51,17.50
2018,04,23,16,52,17.40
2018,04,23,16,53,17.40
2018,04,23,16,54,17.50
2018,04,23,16,55,17.50
2018,04,23,16,56,17.60
2018,04,23,16,57,17.60
2018,04,23,16,58,17.50
2018,04,23,16,59,17.40
2018,04,23,17,00,17.30
2018,04,23,17,01,17.30
2018,04,23,17,02,17.20
2018,04,23,17,03,17.20
2018,04,23,17,04,17.20
2018,04,23,17,05,17.20
2018,04,23,17,06,17.20
2018,04,23,17,07,17.30
2018,04,23,17,08,17.30
2018,04,23,17,09,17.40
2018,04,23,17,10,17.40
2018,04,23,17,11,17.50
2018,04,23,17,12,17.50
2018,04,23,17,13,17.40
2018,04,23,17,14,17.40
2018,04,23,17,15,17.40
2018,04,23,17,16,17.40
2018,04,23,17,17,17.40
2018,04,23,17,18,17.40
2018,04,23,17,19,17.30
2018,04,23,17,20,17.30
2018,04,23,17,21,17.40
2018,04,23,17,22,17.40
2018,04,23,17,23,17.50
2018,04,23,17,24,17.50
2018,04,23,17,25,17.60
2018,04,23,17,26,17.60
2018,04,23,17,27,17.60
2018,04,23,17,28,17.50
2018,04,23,17,29,17.40
2018,04,23,17,30,17.40
2018,04,23,17,31,17.30
2018,04,23,17,32,17.30
2018,04,23,17,33,17.20
2018,04,23,17,34,17.30
2018,04,23,17,35,17.30
2018,04,23,17,36,17.30
2018,04,23,17,37,17.30
2018,04,23,17,38,17.30
2018,04,23,17,39,17.30
2018,04,23,17,40,17.40
2018,04,23,17,41,17.50
2018,04,23,17,42,17.50
2018,04,23,17,43,17.60
2018,04,23,17,44,17.70
2018,04,23,17,45,17.70
2018,04,23,17,46,17.70
2018,04,23,17,47,17.70
2018,04,23,17,48,17.70
2018,04,23,17,49,17.70
2018,04,23,17,50,17.70
2018,04,23,17,51,17.70
2018,04,23,17,52,17.70
2018,04,23,17,53,17.60
2018,04,23,17,54,17.60
2018,04,23,17,55,17.50
2018,04,23,17,56,17.50
2018,04,23,17,57,17.50
2018,04,23,17,58,17.50
2018,04,23,17,59,17.60
2018,04,23,18,00,17.60
2018,04,23,18,01,17.60
2018,04,23,18,02,17.60
2018,04,23,18,03,17.60
2018,04,23,18,04,17.70
2018,04,23,18,05,17.80
2018,04,23,18,06,17.80
2018,04,23,18,07,17.80
2018,04,23,18,08,17.80
2018,04,23,18,09,17.80
2018,04,23,18,10,17.80
2018,04,23,18,11,17.80
2018,04,23,18,12,17.80
2018,04,23,18,13,17.90
2018,04,23,18,14,17.80
2018,04,23,18,15,17.80
2018,04,23,18,16,17.80
2018,04,23,18,17,17.80
2018,04,23,18,18,17.80
2018,04,23,18,19,17.70
2018,04,23,18,20,17.70
2018,04,23,18,21,17.60
2018,04,23,18,22,17.60
2018,04,23,18,23,17.50
2018,04,23,18,24,17.50
2018,04,23,18,25,17.50
2018,04,23,18,26,17.50
2018,04,23,18,27,17.50
2018,04,23,18,28,17.50
2018,04,23,18,29,17.50
2018,04,23,18,30,17.40
2018,04,23,18,31,17.40
2018,04,23,18,32,17.40
2018,04,23,18,33,17.40
2018,04,23,18,34,17.40
2018,04,23,18,35,17.30
2018,04,23,18,36,17.30
2018,04,23,18,37,17.40
2018,04,23,18,38,17.40
2018,04,23,18,39,17.40
2018,04,23,18,40,17.40